| time (UTC) | temp F | wind direction | speed MPH | gust MPH | rain 1hr in | rain 24hr in | rain mn in | humidity % | barometer mb |
| 20260508031059 | 64 | 67 | 3.0 | 8.0 | 0.00 | 0.00 | 0.00 | 79 | 1013.0 |
| 20260508030610 | 64 | 59 | 3.0 | 10.0 | 0.00 | 0.00 | 0.00 | 78 | 1013.1 |
| 20260508030135 | 64 | 61 | 8.0 | 11.0 | 0.00 | 0.00 | 0.00 | 78 | 1012.8 |
| 20260508025624 | 64 | 76 | 8.0 | 11.0 | 0.00 | 0.00 | 0.00 | 78 | 1012.5 |
| 20260508024624 | 64 | 54 | 3.0 | 7.0 | 0.00 | 0.00 | 0.00 | 78 | 1012.7 |
| 20260508024119 | 64 | 26 | 3.0 | 8.0 | 0.00 | 0.00 | 0.00 | 78 | 1013.5 |
| 20260508023119 | 64 | 20 | 5.0 | 9.0 | 0.00 | 0.00 | 0.00 | 78 | 1013.3 |
| 20260508022609 | 64 | 38 | 2.0 | 4.0 | 0.00 | 0.00 | 0.00 | 78 | 1013.6 |
| 20260508022112 | 64 | 51 | 3.0 | 5.0 | 0.00 | 0.00 | 0.00 | 78 | 1013.5 |
| 20260508021538 | 64 | 78 | 4.0 | 5.0 | 0.00 | 0.00 | 0.00 | 78 | 1013.4 |
| 20260508021041 | 64 | 81 | 3.0 | 6.0 | 0.00 | 0.00 | 0.00 | 78 | 1013.0 |
| 20260508020041 | 65 | 74 | 5.0 | 7.0 | 0.00 | 0.00 | 0.00 | 78 | 1013.0 |
| 20260508015553 | 65 | 69 | 4.0 | 6.0 | 0.00 | 0.00 | 0.00 | 78 | 1013.0 |
| 20260508014617 | 65 | 74 | 4.0 | 6.0 | 0.00 | 0.00 | 0.00 | 78 | 1013.1 |
| 20260508014105 | 65 | 47 | 3.0 | 4.0 | 0.00 | 0.00 | 0.00 | 77 | 1013.4 |
| 20260508013127 | 65 | 29 | 2.0 | 6.0 | 0.00 | 0.00 | 0.00 | 77 | 1013.9 |
| 20260508012610 | 65 | 5 | 4.0 | 6.0 | 0.00 | 0.00 | 0.00 | 76 | 1013.9 |
| 20260508012120 | 66 | 13 | 4.0 | 6.0 | 0.00 | 0.00 | 0.00 | 76 | 1013.7 |
| 20260508011548 | 66 | 355 | 4.0 | 6.0 | 0.00 | 0.00 | 0.00 | 76 | 1013.7 |
| 20260508011054 | 66 | 5 | 3.0 | 4.0 | 0.00 | 0.00 | 0.00 | 76 | 1013.6 |
| 20260508010114 | 66 | 37 | 3.0 | 4.0 | 0.00 | 0.00 | 0.00 | 75 | 1013.5 |
| 20260508005530 | 67 | 38 | 2.0 | 6.0 | 0.00 | 0.00 | 0.00 | 74 | 1013.6 |
| 20260508004551 | 67 | 351 | 3.0 | 7.0 | 0.00 | 0.00 | 0.00 | 74 | 1013.7 |
| 20260508004104 | 67 | 348 | 3.0 | 7.0 | 0.00 | 0.00 | 0.00 | 74 | 1013.5 |
| 20260508003609 | 67 | 38 | 4.0 | 8.0 | 0.00 | 0.00 | 0.00 | 74 | 1013.4 |
| 20260508003035 | 67 | 51 | 3.0 | 8.0 | 0.00 | 0.00 | 0.00 | 74 | 1013.4 |
| 20260508002548 | 67 | 19 | 2.0 | 9.0 | 0.00 | 0.00 | 0.00 | 74 | 1013.5 |
| 20260508002109 | 67 | 350 | 5.0 | 9.0 | 0.00 | 0.00 | 0.00 | 73 | 1013.7 |
| 20260508001541 | 68 | 350 | 4.0 | 10.0 | 0.00 | 0.00 | 0.00 | 73 | 1013.6 |
| 20260508001046 | 68 | 32 | 5.0 | 10.0 | 0.00 | 0.00 | 0.00 | 73 | 1013.8 |
| 20260508000047 | 68 | 37 | 7.0 | 9.0 | 0.00 | 0.00 | 0.00 | 72 | 1013.7 |
| 20260507235556 | 68 | 25 | 4.0 | 8.0 | 0.00 | 0.00 | 0.00 | 72 | 1013.9 |
| 20260507234616 | 68 | 348 | 4.0 | 9.0 | 0.00 | 0.00 | 0.00 | 72 | 1014.0 |
| 20260507234108 | 68 | 39 | 4.0 | 11.0 | 0.00 | 0.00 | 0.00 | 72 | 1014.3 |
| 20260507233109 | 69 | 316 | 6.0 | 11.0 | 0.00 | 0.00 | 0.00 | 70 | 1014.2 |
| 20260507232557 | 69 | 28 | 6.0 | 11.0 | 0.00 | 0.00 | 0.00 | 71 | 1014.1 |
| 20260507231535 | 68 | 16 | 6.0 | 11.0 | 0.00 | 0.00 | 0.00 | 71 | 1013.9 |
| 20260507231043 | 68 | 46 | 4.0 | 13.0 | 0.00 | 0.00 | 0.00 | 71 | 1013.9 |
| 20260507230044 | 68 | 5 | 4.0 | 13.0 | 0.00 | 0.00 | 0.00 | 71 | 1013.9 |
| 20260507225556 | 68 | 44 | 7.0 | 13.0 | 0.00 | 0.00 | 0.00 | 70 | 1014.1 |
| 20260507224557 | 69 | 5 | 9.0 | 14.0 | 0.00 | 0.00 | 0.00 | 70 | 1014.6 |
| 20260507224107 | 69 | 355 | 7.0 | 12.0 | 0.00 | 0.00 | 0.00 | 71 | 1014.3 |
| 20260507223612 | 69 | 323 | 7.0 | 13.0 | 0.00 | 0.00 | 0.00 | 72 | 1014.3 |
| 20260507223040 | 68 | 341 | 9.0 | 14.0 | 0.00 | 0.00 | 0.00 | 71 | 1014.2 |
| 20260507222529 | 68 | 341 | 7.0 | 15.0 | 0.00 | 0.00 | 0.00 | 72 | 1014.3 |
| 20260507222115 | 69 | 331 | 9.0 | 15.0 | 0.00 | 0.00 | 0.00 | 72 | 1014.2 |
| 20260507221546 | 69 | 355 | 6.0 | 13.0 | 0.00 | 0.00 | 0.00 | 72 | 1014.0 |
| 20260507221049 | 69 | 349 | 6.0 | 11.0 | 0.00 | 0.00 | 0.00 | 72 | 1013.9 |
| 20260507220640 | 69 | 355 | 5.0 | 15.0 | 0.00 | 0.00 | 0.00 | 72 | 1013.8 |
| 20260507220036 | 69 | 360 | 11.0 | 15.0 | 0.00 | 0.00 | 0.00 | 70 | 1014.0 |
| 20260507215546 | 69 | 355 | 7.0 | 12.0 | 0.00 | 0.00 | 0.00 | 72 | 1013.9 |
| 20260507214606 | 69 | 13 | 5.0 | 12.0 | 0.00 | 0.00 | 0.00 | 71 | 1013.7 |
| 20260507214117 | 69 | 26 | 5.0 | 11.0 | 0.00 | 0.00 | 0.00 | 71 | 1013.7 |
| 20260507213559 | 69 | 34 | 5.0 | 10.0 | 0.00 | 0.00 | 0.00 | 71 | 1013.6 |
| 20260507213025 | 69 | 11 | 4.0 | 10.0 | 0.00 | 0.00 | 0.00 | 71 | 1013.5 |
| 20260507212527 | 69 | 5 | 7.0 | 10.0 | 0.00 | 0.00 | 0.00 | 70 | 1013.6 |
| 20260507212117 | 69 | 41 | 4.0 | 9.0 | 0.00 | 0.00 | 0.00 | 71 | 1013.8 |
| 20260507211547 | 69 | 17 | 5.0 | 9.0 | 0.00 | 0.00 | 0.00 | 70 | 1014.2 |
| 20260507211046 | 69 | 12 | 4.0 | 9.0 | 0.00 | 0.00 | 0.00 | 70 | 1014.3 |
| 20260507210053 | 69 | 84 | 7.0 | 11.0 | 0.00 | 0.00 | 0.00 | 69 | 1014.0 |
| 20260507205555 | 70 | 24 | 5.0 | 11.0 | 0.00 | 0.00 | 0.00 | 69 | 1013.9 |
| 20260507204616 | 70 | 46 | 7.0 | 13.0 | 0.00 | 0.00 | 0.00 | 68 | 1013.8 |
| 20260507204125 | 70 | 349 | 5.0 | 13.0 | 0.00 | 0.00 | 0.00 | 68 | 1013.8 |
| 20260507203607 | 70 | 18 | 8.0 | 13.0 | 0.00 | 0.00 | 0.00 | 68 | 1014.1 |
| 20260507203033 | 70 | 26 | 9.0 | 13.0 | 0.00 | 0.00 | 0.00 | 67 | 1014.5 |
| 20260507202543 | 70 | 26 | 6.0 | 12.0 | 0.00 | 0.00 | 0.00 | 69 | 1014.7 |
| 20260507201546 | 71 | 333 | 6.0 | 13.0 | 0.00 | 0.00 | 0.00 | 68 | 1014.9 |
| 20260507201049 | 71 | 344 | 8.0 | 17.0 | 0.00 | 0.00 | 0.00 | 67 | 1014.9 |
| 20260507200558 | 71 | 5 | 9.0 | 17.0 | 0.00 | 0.00 | 0.00 | 67 | 1014.9 |
| 20260507200027 | 72 | 5 | 6.0 | 12.0 | 0.00 | 0.00 | 0.00 | 67 | 1015.0 |
| 20260507195530 | 72 | 17 | 6.0 | 10.0 | 0.00 | 0.00 | 0.00 | 68 | 1014.9 |
| 20260507195141 | 72 | 37 | 7.0 | 11.0 | 0.00 | 0.00 | 0.00 | 67 | 1015.0 |
| 20260507194539 | 72 | 13 | 7.0 | 12.0 | 0.00 | 0.00 | 0.00 | 68 | 1014.9 |
| 20260507194029 | 72 | 59 | 6.0 | 11.0 | 0.00 | 0.00 | 0.00 | 67 | 1014.7 |
| 20260507193047 | 71 | 33 | 7.0 | 15.0 | 0.00 | 0.00 | 0.00 | 69 | 1014.8 |
| 20260507192539 | 71 | 56 | 7.0 | 15.0 | 0.00 | 0.00 | 0.00 | 69 | 1014.6 |
| 20260507191604 | 71 | 52 | 8.0 | 15.0 | 0.00 | 0.00 | 0.00 | 69 | 1014.6 |
| 20260507191053 | 70 | 48 | 9.0 | 15.0 | 0.00 | 0.00 | 0.00 | 70 | 1014.5 |
| 20260507190553 | 70 | 344 | 6.0 | 15.0 | 0.00 | 0.00 | 0.00 | 71 | 1014.6 |
| 20260507190023 | 71 | 21 | 7.0 | 14.0 | 0.00 | 0.00 | 0.00 | 71 | 1014.8 |
| 20260507185527 | 71 | 351 | 6.0 | 14.0 | 0.00 | 0.00 | 0.00 | 70 | 1015.0 |
| 20260507185053 | 71 | 36 | 7.0 | 13.0 | 0.00 | 0.00 | 0.00 | 71 | 1015.0 |
| 20260507184523 | 70 | 23 | 8.0 | 13.0 | 0.00 | 0.00 | 0.00 | 70 | 1015.2 |
| 20260507184134 | 70 | 65 | 7.0 | 12.0 | 0.00 | 0.00 | 0.00 | 72 | 1015.2 |
| 20260507183619 | 70 | 25 | 6.0 | 13.0 | 0.00 | 0.00 | 0.00 | 73 | 1015.2 |
| 20260507183044 | 69 | 67 | 8.0 | 13.0 | 0.00 | 0.00 | 0.00 | 73 | 1015.2 |
| 20260507182552 | 68 | 30 | 6.0 | 14.0 | 0.00 | 0.00 | 0.00 | 74 | 1015.5 |
| 20260507181617 | 67 | 26 | 7.0 | 14.0 | 0.00 | 0.00 | 0.00 | 75 | 1016.2 |
| 20260507181059 | 67 | 65 | 7.0 | 14.0 | 0.00 | 0.00 | 0.00 | 76 | 1016.0 |
| 20260507180057 | 66 | 5 | 6.0 | 11.0 | 0.00 | 0.00 | 0.00 | 77 | 1016.4 |
| 20260507175607 | 65 | 316 | 5.0 | 10.0 | 0.00 | 0.00 | 0.00 | 77 | 1016.9 |
| 20260507174608 | 65 | 350 | 3.0 | 10.0 | 0.00 | 0.00 | 0.00 | 78 | 1016.8 |
| 20260507174057 | 64 | 346 | 5.0 | 13.0 | 0.00 | 0.00 | 0.00 | 77 | 1016.7 |
| 20260507173057 | 65 | 351 | 5.0 | 9.0 | 0.00 | 0.00 | 0.00 | 78 | 1016.4 |
| 20260507172604 | 64 | 19 | 5.0 | 9.0 | 0.00 | 0.00 | 0.00 | 79 | 1016.3 |
| 20260507172111 | 64 | 22 | 4.0 | 9.0 | 0.00 | 0.00 | 0.00 | 78 | 1016.5 |
| 20260507171539 | 64 | 39 | 5.0 | 10.0 | 0.00 | 0.00 | 0.00 | 78 | 1016.5 |
| 20260507171043 | 64 | 331 | 6.0 | 10.0 | 0.00 | 0.00 | 0.00 | 78 | 1016.4 |
| 20260507170110 | 63 | 29 | 4.0 | 12.0 | 0.00 | 0.00 | 0.00 | 80 | 1016.7 |
| 20260507165613 | 63 | 31 | 5.0 | 12.0 | 0.00 | 0.00 | 0.00 | 80 | 1016.7 |
| 20260507165122 | 63 | 315 | 7.0 | 12.0 | 0.00 | 0.00 | 0.00 | 80 | 1016.8 |
| 20260507164540 | 62 | 355 | 8.0 | 12.0 | 0.00 | 0.00 | 0.00 | 80 | 1016.9 |
| 20260507164034 | 62 | 355 | 7.0 | 11.0 | 0.00 | 0.00 | 0.00 | 81 | 1016.9 |
| 20260507163056 | 62 | 355 | 6.0 | 12.0 | 0.00 | 0.00 | 0.00 | 82 | 1016.9 |
| 20260507162558 | 62 | 360 | 8.0 | 12.0 | 0.00 | 0.00 | 0.00 | 81 | 1016.9 |
| 20260507161605 | 62 | 40 | 4.0 | 11.0 | 0.00 | 0.00 | 0.00 | 82 | 1016.9 |
| 20260507161108 | 62 | 329 | 7.0 | 14.0 | 0.00 | 0.00 | 0.00 | 81 | 1016.9 |
| 20260507160620 | 62 | 355 | 8.0 | 14.0 | 0.00 | 0.00 | 0.00 | 81 | 1016.8 |
| 20260507160040 | 63 | 339 | 9.0 | 14.0 | 0.00 | 0.00 | 0.00 | 81 | 1016.7 |
| 20260507155550 | 63 | 342 | 6.0 | 15.0 | 0.00 | 0.00 | 0.00 | 82 | 1016.5 |
| 20260507154615 | 62 | 355 | 10.0 | 15.0 | 0.00 | 0.00 | 0.00 | 82 | 1016.0 |
| 20260507154024 | 62 | 34 | 8.0 | 16.0 | 0.00 | 0.00 | 0.00 | 83 | 1015.9 |
| 20260507153528 | 62 | 355 | 10.0 | 16.0 | 0.00 | 0.00 | 0.00 | 83 | 1015.8 |
| 20260507153141 | 62 | 350 | 8.0 | 13.0 | 0.00 | 0.00 | 0.00 | 83 | 1016.0 |
| 20260507152523 | 61 | 360 | 8.0 | 14.0 | 0.00 | 0.00 | 0.00 | 84 | 1016.0 |
| 20260507151553 | 61 | 42 | 7.0 | 14.0 | 0.00 | 0.00 | 0.00 | 84 | 1015.8 |
| 20260507151057 | 61 | 5 | 8.0 | 14.0 | 0.00 | 0.00 | 0.00 | 85 | 1015.8 |
| 20260507150608 | 60 | 21 | 7.0 | 14.0 | 0.00 | 0.00 | 0.00 | 85 | 1016.0 |
| 20260507150039 | 60 | 49 | 9.0 | 14.0 | 0.00 | 0.00 | 0.00 | 85 | 1015.9 |
| 20260507145541 | 60 | 38 | 6.0 | 12.0 | 0.00 | 0.00 | 0.00 | 85 | 1016.1 |
| 20260507145051 | 60 | 5 | 9.0 | 12.0 | 0.00 | 0.00 | 0.00 | 85 | 1016.4 |
| 20260507144535 | 60 | 36 | 7.0 | 11.0 | 0.00 | 0.00 | 0.00 | 85 | 1016.6 |
| 20260507144044 | 60 | 37 | 5.0 | 13.0 | 0.00 | 0.00 | 0.00 | 86 | 1016.6 |
| 20260507143044 | 60 | 14 | 7.0 | 13.0 | 0.00 | 0.00 | 0.00 | 86 | 1016.9 |
| 20260507142554 | 60 | 44 | 5.0 | 11.0 | 0.00 | 0.00 | 0.00 | 86 | 1016.7 |
| 20260507142057 | 60 | 15 | 7.0 | 14.0 | 0.00 | 0.00 | 0.00 | 86 | 1016.6 |
| 20260507141525 | 60 | 20 | 7.0 | 14.0 | 0.00 | 0.00 | 0.00 | 86 | 1016.5 |
| 20260507141029 | 60 | 18 | 5.0 | 16.0 | 0.00 | 0.00 | 0.00 | 86 | 1016.5 |
| 20260507140636 | 60 | 20 | 8.0 | 16.0 | 0.00 | 0.00 | 0.00 | 86 | 1016.4 |
| 20260507140046 | 60 | 13 | 7.0 | 14.0 | 0.00 | 0.00 | 0.00 | 86 | 1016.5 |
| 20260507135547 | 60 | 36 | 7.0 | 14.0 | 0.00 | 0.00 | 0.00 | 86 | 1016.4 |
| 20260507134607 | 60 | 30 | 9.0 | 16.0 | 0.00 | 0.00 | 0.00 | 86 | 1016.4 |
| 20260507134117 | 60 | 18 | 7.0 | 16.0 | 0.00 | 0.00 | 0.00 | 86 | 1016.4 |
| 20260507133617 | 60 | 12 | 7.0 | 15.0 | 0.00 | 0.00 | 0.00 | 86 | 1016.3 |
| 20260507133026 | 60 | 16 | 8.0 | 15.0 | 0.00 | 0.00 | 0.00 | 86 | 1016.2 |
| 20260507132537 | 60 | 14 | 8.0 | 13.0 | 0.00 | 0.00 | 0.00 | 86 | 1016.4 |
| 20260507131559 | 60 | 28 | 5.0 | 13.0 | 0.00 | 0.00 | 0.00 | 86 | 1016.4 |
| 20260507131114 | 61 | 22 | 8.0 | 15.0 | 0.00 | 0.00 | 0.00 | 86 | 1016.4 |
| 20260507130611 | 61 | 18 | 8.0 | 15.0 | 0.00 | 0.00 | 0.00 | 86 | 1016.3 |
| 20260507130036 | 61 | 348 | 8.0 | 12.0 | 0.00 | 0.00 | 0.00 | 86 | 1016.3 |
| 20260507125540 | 61 | 27 | 7.0 | 11.0 | 0.00 | 0.00 | 0.00 | 86 | 1016.0 |
| 20260507124608 | 61 | 337 | 6.0 | 15.0 | 0.00 | 0.00 | 0.00 | 86 | 1015.8 |
| 20260507124111 | 61 | 26 | 6.0 | 15.0 | 0.00 | 0.00 | 0.00 | 86 | 1015.8 |
| 20260507123109 | 61 | 15 | 7.0 | 12.0 | 0.00 | 0.00 | 0.00 | 87 | 1015.8 |
| 20260507122618 | 61 | 27 | 7.0 | 13.0 | 0.00 | 0.00 | 0.00 | 87 | 1015.7 |
| 20260507122119 | 61 | 15 | 10.0 | 17.0 | 0.00 | 0.00 | 0.00 | 87 | 1015.7 |
| 20260507121549 | 61 | 334 | 11.0 | 17.0 | 0.00 | 0.00 | 0.00 | 88 | 1015.6 |
| 20260507121036 | 61 | 355 | 10.0 | 16.0 | 0.00 | 0.00 | 0.00 | 88 | 1015.5 |
| 20260507120640 | 61 | 338 | 11.0 | 15.0 | 0.00 | 0.00 | 0.00 | 88 | 1015.5 |
| 20260507120047 | 61 | 355 | 7.0 | 14.0 | 0.00 | 0.00 | 0.00 | 88 | 1015.3 |
| 20260507115529 | 61 | 355 | 7.0 | 13.0 | 0.00 | 0.00 | 0.00 | 88 | 1015.3 |
| 20260507114559 | 61 | 355 | 7.0 | 13.0 | 0.00 | 0.00 | 0.00 | 88 | 1014.9 |
| 20260507114102 | 61 | 333 | 9.0 | 13.0 | 0.00 | 0.00 | 0.00 | 88 | 1014.8 |
| 20260507113108 | 62 | 343 | 7.0 | 13.0 | 0.00 | 0.00 | 0.00 | 88 | 1014.8 |
| 20260507112610 | 62 | 5 | 7.0 | 12.0 | 0.00 | 0.00 | 0.00 | 88 | 1014.7 |
| 20260507111614 | 62 | 9 | 6.0 | 12.0 | 0.00 | 0.00 | 0.00 | 88 | 1014.6 |
| 20260507111103 | 62 | 346 | 5.0 | 11.0 | 0.00 | 0.00 | 0.00 | 88 | 1014.7 |
| 20260507110602 | 62 | 355 | 7.0 | 11.0 | 0.00 | 0.00 | 0.00 | 88 | 1014.6 |
| 20260507110032 | 62 | 22 | 3.0 | 11.0 | 0.00 | 0.00 | 0.00 | 88 | 1014.7 |
| 20260507105541 | 62 | 5 | 5.0 | 12.0 | 0.00 | 0.00 | 0.00 | 88 | 1015.0 |
| 20260507104539 | 62 | 315 | 5.0 | 12.0 | 0.00 | 0.00 | 0.00 | 88 | 1015.0 |
| 20260507104041 | 62 | 355 | 5.0 | 12.0 | 0.00 | 0.00 | 0.00 | 88 | 1014.3 |
| 20260507103041 | 62 | 340 | 7.0 | 13.0 | 0.00 | 0.00 | 0.00 | 88 | 1014.2 |
| 20260507102555 | 62 | 5 | 7.0 | 13.0 | 0.00 | 0.00 | 0.00 | 88 | 1013.7 |
| 20260507101553 | 62 | 9 | 6.0 | 12.0 | 0.00 | 0.00 | 0.00 | 88 | 1014.1 |
| 20260507101103 | 62 | 333 | 6.0 | 10.0 | 0.00 | 0.00 | 0.00 | 88 | 1014.2 |
| 20260507100609 | 62 | 350 | 8.0 | 13.0 | 0.00 | 0.00 | 0.00 | 88 | 1013.9 |
| 20260507100034 | 62 | 344 | 6.0 | 13.0 | 0.00 | 0.00 | 0.00 | 88 | 1013.8 |
| 20260507095538 | 62 | 350 | 7.0 | 11.0 | 0.00 | 0.00 | 0.00 | 88 | 1013.6 |
| 20260507094605 | 62 | 335 | 4.0 | 12.0 | 0.00 | 0.00 | 0.00 | 88 | 1013.5 |
| 20260507094108 | 62 | 360 | 5.0 | 12.0 | 0.00 | 0.00 | 0.00 | 88 | 1013.4 |
| 20260507093619 | 62 | 26 | 8.0 | 12.0 | 0.00 | 0.00 | 0.00 | 87 | 1013.7 |
| 20260507093042 | 62 | 360 | 5.0 | 11.0 | 0.00 | 0.00 | 0.00 | 87 | 1013.7 |
| 20260507092551 | 62 | 337 | 7.0 | 11.0 | 0.00 | 0.00 | 0.00 | 87 | 1013.8 |
| 20260507091612 | 62 | 29 | 4.0 | 8.0 | 0.00 | 0.00 | 0.00 | 87 | 1013.6 |
| 20260507091101 | 62 | 15 | 3.0 | 7.0 | 0.00 | 0.00 | 0.00 | 87 | 1013.3 |
| 20260507090100 | 62 | 14 | 3.0 | 8.0 | 0.00 | 0.00 | 0.00 | 87 | 1013.3 |
| 20260507085613 | 62 | 43 | 2.0 | 10.0 | 0.00 | 0.00 | 0.00 | 87 | 1013.0 |
| 20260507085055 | 62 | 20 | 4.0 | 9.0 | 0.00 | 0.00 | 0.00 | 87 | 1013.1 |
| 20260507084524 | 62 | 31 | 4.0 | 10.0 | 0.00 | 0.00 | 0.00 | 87 | 1012.8 |
| 20260507084027 | 62 | 59 | 5.0 | 10.0 | 0.00 | 0.00 | 0.00 | 87 | 1012.6 |
| 20260507083055 | 62 | 24 | 5.0 | 10.0 | 0.00 | 0.00 | 0.00 | 87 | 1013.0 |
| 20260507082558 | 62 | 60 | 5.0 | 9.0 | 0.00 | 0.00 | 0.00 | 86 | 1012.8 |
| 20260507081619 | 62 | 25 | 6.0 | 10.0 | 0.00 | 0.00 | 0.00 | 86 | 1013.3 |
| 20260507081129 | 62 | 30 | 6.0 | 10.0 | 0.00 | 0.00 | 0.00 | 86 | 1013.4 |
| 20260507080612 | 62 | 28 | 5.0 | 11.0 | 0.00 | 0.00 | 0.00 | 86 | 1013.6 |
| 20260507080040 | 62 | 27 | 5.0 | 11.0 | 0.00 | 0.00 | 0.00 | 86 | 1013.7 |
| 20260507075556 | 62 | 30 | 5.0 | 10.0 | 0.00 | 0.00 | 0.00 | 86 | 1013.2 |
| 20260507074614 | 62 | 26 | 5.0 | 12.0 | 0.00 | 0.00 | 0.00 | 86 | 1013.5 |
| 20260507074106 | 62 | 26 | 6.0 | 13.0 | 0.00 | 0.00 | 0.00 | 86 | 1013.1 |
| 20260507073105 | 62 | 33 | 6.0 | 12.0 | 0.00 | 0.00 | 0.00 | 86 | 1013.4 |
| 20260507072608 | 62 | 54 | 4.0 | 9.0 | 0.00 | 0.00 | 0.00 | 85 | 1013.4 |
| 20260507072054 | 62 | 69 | 4.0 | 10.0 | 0.00 | 0.00 | 0.00 | 85 | 1013.6 |
| 20260507071524 | 62 | 18 | 6.0 | 10.0 | 0.00 | 0.00 | 0.00 | 85 | 1013.9 |
| 20260507071107 | 62 | 32 | 4.0 | 10.0 | 0.00 | 0.00 | 0.00 | 85 | 1013.4 |
| 20260507070618 | 62 | 71 | 5.0 | 12.0 | 0.00 | 0.00 | 0.00 | 85 | 1013.7 |
| 20260507070035 | 62 | 89 | 6.0 | 12.0 | 0.00 | 0.00 | 0.00 | 85 | 1013.4 |
| 20260507065528 | 62 | 49 | 4.0 | 13.0 | 0.00 | 0.00 | 0.00 | 85 | 1013.8 |
| 20260507065037 | 62 | 32 | 7.0 | 13.0 | 0.00 | 0.00 | 0.00 | 85 | 1013.7 |
| 20260507064535 | 62 | 53 | 5.0 | 13.0 | 0.00 | 0.00 | 0.00 | 85 | 1013.5 |
| 20260507064045 | 63 | 324 | 8.0 | 13.0 | 0.00 | 0.00 | 0.00 | 85 | 1013.2 |
| 20260507063526 | 63 | 34 | 5.0 | 13.0 | 0.00 | 0.00 | 0.00 | 85 | 1013.7 |
| 20260507063045 | 63 | 36 | 6.0 | 13.0 | 0.00 | 0.00 | 0.00 | 85 | 1013.7 |
| 20260507062533 | 63 | 42 | 4.0 | 11.0 | 0.00 | 0.00 | 0.00 | 85 | 1014.1 |
| 20260507062043 | 63 | 360 | 6.0 | 11.0 | 0.00 | 0.00 | 0.00 | 85 | 1014.1 |
| 20260507061534 | 63 | 35 | 4.0 | 10.0 | 0.00 | 0.00 | 0.00 | 85 | 1013.9 |
| 20260507061042 | 63 | 26 | 5.0 | 12.0 | 0.00 | 0.00 | 0.00 | 85 | 1014.1 |
| 20260507060531 | 63 | 355 | 7.0 | 13.0 | 0.00 | 0.00 | 0.00 | 85 | 1013.9 |
| 20260507060024 | 63 | 24 | 8.0 | 13.0 | 0.00 | 0.00 | 0.00 | 85 | 1014.1 |
| 20260507055533 | 63 | 26 | 5.0 | 12.0 | 0.00 | 0.00 | 0.00 | 84 | 1013.9 |
| 20260507055042 | 63 | 360 | 7.0 | 16.0 | 0.00 | 0.00 | 0.00 | 84 | 1013.9 |
| 20260507054535 | 63 | 360 | 10.0 | 16.0 | 0.00 | 0.00 | 0.00 | 84 | 1013.9 |
| 20260507054023 | 63 | 15 | 7.0 | 11.0 | 0.00 | 0.00 | 0.00 | 84 | 1013.9 |
| 20260507053552 | 63 | 5 | 6.0 | 15.0 | 0.00 | 0.00 | 0.00 | 84 | 1013.5 |
| 20260507053022 | 63 | 40 | 9.0 | 15.0 | 0.00 | 0.00 | 0.00 | 84 | 1012.8 |
| 20260507052539 | 63 | 355 | 6.0 | 13.0 | 0.00 | 0.00 | 0.00 | 84 | 1013.8 |
| 20260507052048 | 63 | 339 | 7.0 | 12.0 | 0.00 | 0.00 | 0.00 | 84 | 1013.6 |
| 20260507051539 | 63 | 360 | 6.0 | 12.0 | 0.00 | 0.00 | 0.00 | 84 | 1013.3 |
| 20260507051028 | 63 | 349 | 5.0 | 12.0 | 0.00 | 0.00 | 0.00 | 83 | 1013.6 |
| 20260507050558 | 63 | 18 | 6.0 | 13.0 | 0.00 | 0.00 | 0.00 | 83 | 1013.7 |
| 20260507050057 | 63 | 349 | 7.0 | 15.0 | 0.00 | 0.00 | 0.00 | 83 | 1014.0 |
| 20260507045558 | 63 | 46 | 7.0 | 15.0 | 0.00 | 0.00 | 0.00 | 83 | 1013.6 |
| 20260507045108 | 63 | 10 | 5.0 | 13.0 | 0.00 | 0.00 | 0.00 | 83 | 1013.3 |
| 20260507044026 | 63 | 342 | 7.0 | 12.0 | 0.00 | 0.00 | 0.00 | 83 | 1013.4 |
| 20260507043634 | 63 | 15 | 6.0 | 14.0 | 0.00 | 0.00 | 0.00 | 83 | 1013.5 |
| 20260507043038 | 63 | 360 | 6.0 | 11.0 | 0.00 | 0.00 | 0.00 | 83 | 1013.4 |
| 20260507042548 | 63 | 24 | 6.0 | 14.0 | 0.00 | 0.00 | 0.00 | 83 | 1013.5 |
| 20260507041609 | 64 | 341 | 9.0 | 13.0 | 0.00 | 0.00 | 0.00 | 83 | 1013.4 |
| 20260507041058 | 64 | 5 | 7.0 | 14.0 | 0.00 | 0.00 | 0.00 | 83 | 1013.4 |
| 20260507040058 | 64 | 321 | 7.0 | 15.0 | 0.00 | 0.00 | 0.00 | 83 | 1013.4 |
| 20260507035541 | 64 | 32 | 6.0 | 12.0 | 0.00 | 0.00 | 0.00 | 83 | 1013.1 |
| 20260507034602 | 64 | 5 | 8.0 | 15.0 | 0.00 | 0.00 | 0.00 | 83 | 1013.3 |
| 20260507034032 | 64 | 24 | 8.0 | 15.0 | 0.00 | 0.00 | 0.00 | 83 | 1013.2 |
| 20260507033635 | 64 | 345 | 7.0 | 13.0 | 0.00 | 0.00 | 0.00 | 83 | 1013.1 |
| 20260507033044 | 64 | 5 | 7.0 | 15.0 | 0.00 | 0.00 | 0.00 | 83 | 1013.0 |
| 20260507032554 | 64 | 360 | 10.0 | 15.0 | 0.00 | 0.00 | 0.00 | 83 | 1013.0 |
| 20260507031615 | 64 | 347 | 8.0 | 15.0 | 0.00 | 0.00 | 0.00 | 83 | 1013.1 |